TimeCDT,TemperatureF,Dew PointF,Humidity,Sea Level PressureIn,VisibilityMPH,Wind Direction,Wind SpeedMPH,Gust SpeedMPH,PrecipitationIn,Events,Conditions,WindDirDegrees,DateUTC
12:53 AM,61.0,53.1,75,30.19,10.0,Calm,Calm,-,N/A,,Overcast,0,2013-10-14 05:53:00
1:53 AM,59.0,54.0,83,30.19,10.0,Calm,Calm,-,N/A,,Clear,0,2013-10-14 06:53:00
2:53 AM,60.1,54.0,80,30.17,10.0,ESE,3.5,-,N/A,,Clear,120,2013-10-14 07:53:00
3:53 AM,60.1,55.0,83,30.15,10.0,Calm,Calm,-,N/A,,Clear,0,2013-10-14 08:53:00
4:53 AM,57.9,55.0,90,30.15,10.0,Calm,Calm,-,N/A,,Clear,0,2013-10-14 09:53:00
5:53 AM,60.1,55.0,83,30.14,10.0,SE,4.6,-,N/A,,Partly Cloudy,140,2013-10-14 10:53:00
6:53 AM,61.0,55.0,81,30.14,10.0,SE,5.8,-,N/A,,Overcast,140,2013-10-14 11:53:00
7:53 AM,61.0,55.0,81,30.14,10.0,SE,6.9,-,N/A,,Overcast,140,2013-10-14 12:53:00
8:53 AM,61.0,55.0,81,30.13,10.0,SE,5.8,-,0.00,Rain,Light Rain,140,2013-10-14 13:53:00
9:38 AM,62.6,53.6,72,30.14,10.0,SE,6.9,-,0.00,,Overcast,140,2013-10-14 14:38:00
9:53 AM,62.1,54.0,75,30.12,10.0,SSE,6.9,-,0.00,,Overcast,150,2013-10-14 14:53:00
10:34 AM,59.0,55.4,88,30.13,7.0,SSE,6.9,-,0.03,Rain,Light Rain,160,2013-10-14 15:34:00
10:51 AM,59.0,55.4,88,30.13,6.0,SSE,5.8,-,0.04,Rain,Light Rain,160,2013-10-14 15:51:00
10:53 AM,59.0,55.9,90,30.12,6.0,SSE,8.1,-,0.04,Rain,Light Rain,160,2013-10-14 15:53:00
11:04 AM,57.2,55.4,94,30.13,1.8,SSE,9.2,-,0.07,Rain,Heavy Rain,160,2013-10-14 16:04:00
11:22 AM,57.2,55.4,94,30.12,2.5,SSE,5.8,-,0.17,Rain,Rain,160,2013-10-14 16:22:00
11:26 AM,57.2,55.4,94,30.12,1.2,SE,4.6,-,0.24,Rain,Heavy Rain,140,2013-10-14 16:26:00
11:34 AM,55.4,55.4,100,30.12,1.0,SSE,4.6,-,0.33,Rain,Heavy Rain,150,2013-10-14 16:34:00
11:44 AM,57.2,55.4,94,30.11,3.0,SE,6.9,-,0.35,Rain,Light Rain,140,2013-10-14 16:44:00
11:53 AM,57.0,57.0,100,30.09,7.0,SSE,4.6,-,0.36,Rain,Light Rain,150,2013-10-14 16:53:00
12:13 PM,57.2,57.2,100,30.10,5.0,SSE,6.9,-,0.01,Rain,Light Rain,160,2013-10-14 17:13:00
12:24 PM,57.2,57.2,100,30.11,1.8,SSW,5.8,-,0.05,Rain,Heavy Rain,210,2013-10-14 17:24:00
12:48 PM,57.2,57.2,100,30.08,2.0,Variable,3.5,-,0.21,Rain,Rain,0,2013-10-14 17:48:00
12:53 PM,57.9,57.0,97,30.07,3.0,Variable,5.8,-,0.21,Rain,Rain,0,2013-10-14 17:53:00
1:01 PM,57.2,57.2,100,30.08,2.5,SSE,6.9,-,0.04,Rain,Rain,150,2013-10-14 18:01:00
1:03 PM,57.2,57.2,100,30.08,1.5,SSE,3.5,-,0.07,Rain,Heavy Rain,160,2013-10-14 18:03:00
1:17 PM,57.2,57.2,100,30.07,3.0,SSE,4.6,-,0.10,Rain,Rain,150,2013-10-14 18:17:00
1:50 PM,59.0,57.2,94,30.03,5.0,SSE,6.9,-,0.16,Rain,Light Rain,150,2013-10-14 18:50:00
1:53 PM,59.0,57.9,96,30.02,5.0,SSE,5.8,-,0.16,Rain,Light Rain,160,2013-10-14 18:53:00
2:08 PM,59.0,59.0,100,30.02,5.0,South,4.6,-,0.01,Rain,Light Rain,170,2013-10-14 19:08:00
2:20 PM,59.0,59.0,100,30.01,6.0,SE,6.9,-,0.02,Rain,Light Rain,140,2013-10-14 19:20:00
2:28 PM,60.8,59.0,94,30.01,6.0,SE,6.9,-,0.02,Rain,Light Rain,140,2013-10-14 19:28:00
2:53 PM,60.1,60.1,100,29.99,7.0,SSE,9.2,-,0.03,,Overcast,160,2013-10-14 19:53:00
3:20 PM,60.8,60.8,100,29.98,2.5,SSE,11.5,18.4,0.05,Rain,Rain,150,2013-10-14 20:20:00
3:28 PM,60.8,60.8,100,29.98,3.0,SSE,11.5,-,0.06,Rain,Light Rain,150,2013-10-14 20:28:00
3:43 PM,60.8,60.8,100,29.98,1.8,SSE,6.9,-,0.12,Rain,Rain,150,2013-10-14 20:43:00
3:53 PM,62.1,61.0,96,29.96,1.2,South,8.1,-,0.17,Rain,Heavy Rain,170,2013-10-14 20:53:00
4:53 PM,62.1,62.1,100,29.93,1.5,SSE,10.4,-,0.20,Rain,Light Rain,150,2013-10-14 21:53:00
5:11 PM,62.6,62.6,100,29.94,2.5,SSE,9.2,-,0.01,Rain,Light Rain,150,2013-10-14 22:11:00
5:53 PM,63.0,63.0,100,29.92,3.0,SSE,11.5,-,0.02,,Overcast,160,2013-10-14 22:53:00
6:00 PM,62.6,62.6,100,29.94,2.0,SSE,9.2,17.3,0.00,Rain,Light Rain,160,2013-10-14 23:00:00
6:44 PM,62.6,62.6,100,29.94,4.0,South,6.9,-,0.01,,Overcast,170,2013-10-14 23:44:00
6:53 PM,63.0,63.0,100,29.92,5.0,South,8.1,-,0.01,,Overcast,170,2013-10-14 23:53:00
7:53 PM,64.0,64.0,100,29.91,10.0,SSE,11.5,26.5,N/A,,Overcast,160,2013-10-15 00:53:00
8:53 PM,64.9,64.0,97,29.91,10.0,South,12.7,24.2,0.00,,Overcast,170,2013-10-15 01:53:00
9:40 PM,64.4,62.6,94,29.93,10.0,South,12.7,19.6,N/A,,Overcast,170,2013-10-15 02:40:00
9:53 PM,64.0,64.0,100,29.92,10.0,Variable,5.8,-,0.00,Rain,Light Rain,0,2013-10-15 02:53:00
10:53 PM,64.9,64.0,97,29.91,10.0,South,9.2,17.3,0.00,,Overcast,170,2013-10-15 03:53:00
11:53 PM,64.9,64.0,97,29.88,9.0,South,10.4,17.3,0.01,,Overcast,170,2013-10-15 04:53:00